Observer details:
160 Castelmartini.  Observers M. Jaeger, E. Prosperi, S. Prosperi,
    W. Vollmann.  Measurer E. Prosperi.  0.35-m f/10 Schmidt-Cassegrain + CCD.
203 GiaGa Observatory.  Observers S. Foglia, G. Galli.  Measurer G. Galli.
    0.36-m f/5.76 Schmidt-Cassegrain + CCD.
595 Farra dIsonzo.  Observers U. Montanar, E. Pettarin.  Measurer
    U. Montanar.  0.61-m f/4.5 reflector + CCD.
C47 Nonndorf.  Observer G. Dangl.  0.25-m f/4.8 reflector + CCD.
C77 Bernezzo Observatory.  Observer A. Mantero.  0.25-m f/4.0 reflector + CCD.
C95 SATINO Remote Observatory, Haute Provence.  Observer J. Jahn.  0.60-m
    f/3.2 Newtonian reflector + CCD.
I93 St Pardon de Conques.  Observer F. Losse.  0.40-m f/3.7 reflector + CCD.
J69 North Observatory, Clanfield.  Observer D. Briggs.  0.41-m f/4.5
    Newtonian reflector + CCD.
J95 Great Shefford.  Observer P. Birtwhistle.  0.41-m f/6.3
    Schmidt-Cassegrain + CCD.
K38 M57 Observatory, Saltrio.  Observer G. Baj.  0.3-m f/5.5 Ritchey-Chretien
    + CCD.
K63 G. Pascoli Observatory, Castelvecchio Pascoli.  Observer R. Bacci.
    0.41-m f/3.2 Newtonian reflector + CCD.
K74 Muensterschwarzach Observatory, Schwarzach.  Observer C. Gerhard.  0.30-m
    f/4.6 Newtonian reflector + CCD.
K88 GINOP-KHK, Piszkesteto.  Observers M. Krezinger, K. Sarneczky.
    Measurer K. Sarneczky.  0.60-m Schmidt + CCD.
L01 Visnjan Observatory, Tican.  Observers K. Korlevic, I. Lyon, G. Kervina.
    Measurer K. Korlevic.  1.0-m f/2.9 reflector + CCD.
L04 ROASTERR-1 Observatory, Cluj-Napoca.  Observer L. Hudin.  0.3-m f/5
    reflector + CCD.
P93 Space Tracking and Communications Center, JAXA.  Observers S. Okumura,
    T. Fujiwara.  1.0-m f/3.0 reflector + CCD.
T08 ATLAS-MLO, Mauna Loa.  Observers L. Denneau, J. Tonry, A. Heinze,
    H. Weiland, H. Flewelling.  Measurers L. Denneau, J. Tonry, A. Heinze,
    H. Weiland, H. Flewelling, B. Stalder, A. Fitzsimmons, D. Young,
    N. Erasmus.  0.5-m reflector + CCD.
W34 Squirrel Valley Observatory, Columbus.  Observer R. L. Flynn.  0.2-m
    f/7.0 Schmidt-Cassegrain + CCD.
Z80 Northolt Branch Observatory.  Observer G. Wells.  Measurers G. Wells,
    D. Bamberger.  0.25-m f/8.0 Ritchey-Chretien + CCD.
 
Orbital elements:
2019 FL                                                  Earth MOID = 0.0276 AU
Epoch 2019 Apr. 27.0 TT = JDT 2458600.5                 MPC
M  24.89612              (2000.0)            P               Q
n   0.46463077     Peri.  338.81336     -0.93798601     -0.34663125
a   1.6509379      Node   180.95612     +0.34592231     -0.93481937
e   0.3911423      Incl.   18.83499     +0.02280364     -0.07719787
P   2.12           H   24.2           G   0.15           U   6
Residuals in seconds of arc
190323 T08  1.4+  1.5+    190323 K38  0.2-  0.2+    190324 P93  0.2+  0.1-
190323 T08  0.6-  0.9-    190323 I93  0.4+  0.2+    190324 P93  0.1-  0.0
190323 T08  0.1+  1.3-    190323 203  0.2+  0.1-    190324 P93  0.1+  0.1+
190323 T08  0.4+  0.5-    190323 K38  0.8-  0.3-    190324 P93  0.0   0.2+
190323 L04  0.1-  0.2+    190323 203  0.3+  0.0     190324 K63  0.5-  0.0
190323 L04  0.1-  0.1-    190323 I93  0.2+  0.5-    190324 K63  0.1+  0.1+
190323 L04  0.6-  0.5-    190323 I93  0.0   0.1-    190324 J95  0.0   0.0
190323 L04  0.1+  0.2+    190323 K88  0.1+  0.1+    190324 K63  0.2-  0.1-
190323 K74  0.4-  0.0     190323 K88  0.1-  0.2-    190324 J95  0.1+  0.2-
190323 K74  0.3+  0.4+    190323 K88  0.1-  0.1+    190324 J95  0.1-  0.1+
190323 K74  0.2-  0.6+    190323 Z80  0.3-  0.2-    190324 J95  0.2+  0.3-
190323 595  0.4+  0.2+    190323 C95  0.3+  0.2+    190324 C77  0.2+  0.5+
190323 595  0.1+  0.2+    190323 Z80  0.7-  0.3+    190324 C77  0.0   0.8+
190323 595  0.2+  0.2+    190323 C95  0.3-  0.3+    190324 C77  0.1-  0.2+
190323 595  0.7+  0.5+    190323 160  0.1+  0.3+    190324 L01  0.2+  0.2-
190323 595  0.3+  0.1+    190323 160  0.1+  0.0     190324 L01  0.1-  0.0
190323 595  0.3+  0.3+    190323 160  0.0   0.3+    190324 L01  0.1+  0.0
190323 K38  0.3-  0.1-    190323 160  0.2+  0.4+    190324 L01  0.1-  0.1-
190323 C47  0.0   0.2-    190323 Z80  0.5+  0.9-    190324 L01  0.1-  0.0
190323 K38  0.1-  0.2+    190323 160  0.3-  0.0     190324 L01  0.1-  0.0
190323 C47  0.0   0.2-    190323 160  0.1+  0.6+    190324 J69  0.2-  0.4-
190323 C47  0.0   0.2-    190323 C95  0.6-  0.7+    190324 J69  0.0   0.0
190323 C47  0.1-  0.2-    190323 160  0.2-  0.4+    190324 J69  0.2+  0.1-
190323 K38  0.1-  0.2+    190323 Z80  0.3+  0.0     190324 J69  0.0   0.2-
190323 C47  0.1-  0.3-    190323 C95  0.1-  0.6+    190324 J69  0.3+  0.2-
190323 C47  0.1-  0.3-    190323 Z80  0.2+  0.1-    190324 K88  0.3-  0.3+
190323 K38  0.6-  0.2-    190323 C95  0.4-  0.1-    190324 K88  0.0   0.1+
190323 C47  0.3-  0.4-    190323 C95  0.1+  0.3+    190324 J69  0.4+  0.2-
190323 K38  0.3-  0.2-    190324 W34  0.8-  0.3-    190324 K88  0.1-  0.2+
190323 I93  0.3+  0.1-    190324 W34  0.2-  0.0     190324 K88  0.3-  0.3+
190323 K38  0.2+  0.0     190324 W34  0.1+  0.1+    190324 K88  0.0   0.3+
190323 203  0.2-  0.4-    190324 W34  0.4+  0.0

Ephemeris:
2019 FL                  a,e,i = 1.65, 0.39, 19                  q = 1.0052
Date    TT    R. A. (2000) Decl.     Delta      r     Elong.  Phase     V
2019 02 22    05 14 55.8 -48 15 04   0.1891  1.0111    91.3    77.9    23.3
...
2019 03 09    06 04 50.6 -44 29 44   0.09612 1.0063    95.4    79.2    21.9
...
2019 03 17    07 35 45.6 -32 11 45   0.04843 1.0141   112.2    65.2    20.0
...
2019 03 23    10 17 37.7 +10 16 41   0.03210 1.0246   150.7    28.4    18.0
2019 03 24    10 49 44.8 +18 56 49   0.03384 1.0267   151.8    27.3    18.1
2019 03 25    11 20 30.1 +26 10 47   0.03681 1.0289   149.5    29.5    18.4
...
2019 03 31    13 28 15.7 +44 20 12   0.06812 1.0442   130.4    46.8    20.2
...
2019 04 08    14 33 35.2 +47 33 47   0.1200  1.0697   122.1    52.4    21.7
...
2019 04 23    15 07 18.0 +46 19 52   0.2210  1.1306   119.5    50.7    23.1

A. U. Tomatic                (C) Copyright 2019 MPC           M.P.E.C. 2019-F75



More information about the Iaude mailing list